This is the latest recevied weather packets stored in our database for station/object WA4OPQ-3. If no packets are shown the sender has not sent any weather packets the latest 10 day(s).
| Time | Temp. | Humidity | Pressure | Rain* | Wind** | Luminosity | Snow |
|---|---|---|---|---|---|---|---|
| 1777469466 | 18.33° C | 99% | 1011.3 hPa | 0 mm | - | 97 W/m² | - |
| 1777468862 | 18.33° C | 99% | 1011 hPa | 0 mm | - | 97 W/m² | - |
| 1777468256 | 18.33° C | 99% | 1011 hPa | 0 mm | - | 85 W/m² | - |
| 1777467652 | 17.78° C | 99% | 1011.1 hPa | 0 mm | - | 76 W/m² | - |
| 1777467047 | 17.78° C | 99% | 1011.3 hPa | 0 mm | - | 43 W/m² | - |
| 1777466441 | 17.78° C | 99% | 1011.4 hPa | 0 mm | - | 24 W/m² | - |
| 1777465838 | 17.78° C | 99% | 1011.3 hPa | 0 mm | - | 17 W/m² | - |
| 1777465231 | 17.78° C | 99% | 1011.3 hPa | 0 mm | - | 17 W/m² | - |
| 1777464627 | 17.78° C | 99% | 1011.1 hPa | 0 mm | - | 8 W/m² | - |
| 1777464021 | 17.22° C | 99% | 1010.8 hPa | 0 mm | - | 14 W/m² | - |
| 1777463416 | 17.22° C | 99% | 1010.7 hPa | 0 mm | - | 13 W/m² | - |
| 1777462811 | 17.22° C | 99% | 1010.6 hPa | 0 mm | - | 16 W/m² | - |
| 1777462206 | 17.22° C | 99% | 1010.6 hPa | 0 mm | - | 9 W/m² | - |
| 1777461601 | 17.22° C | 99% | 1010.6 hPa | 0 mm | - | 5 W/m² | - |
| 1777460996 | 17.22° C | 99% | 1010.6 hPa | 0 mm | - | 0 W/m² | - |
| 1777460392 | 16.67° C | 99% | 1010.8 hPa | 0 mm | - | 0 W/m² | - |
| 1777459786 | 16.67° C | 99% | 1011 hPa | 0 mm | - | 0 W/m² | - |
| 1777459181 | 16.67° C | 99% | 1010.6 hPa | 0 mm | - | 0 W/m² | - |
| 1777458577 | 16.67° C | 99% | 1010.6 hPa | 0 mm | - | 0 W/m² | - |
| 1777457973 | 16.67° C | 99% | 1010.3 hPa | 0 mm | - | 0 W/m² | - |
| 1777457366 | 16.11° C | 99% | 1010.5 hPa | 0 mm | - | 0 W/m² | - |
| 1777456761 | 16.11° C | 99% | 1010.4 hPa | 0 mm | - | 0 W/m² | - |
| 1777456155 | 16.11° C | 99% | 1010 hPa | 0 mm | - | 0 W/m² | - |
| 1777455551 | 16.11° C | 99% | 1010.3 hPa | 0 mm | - | 0 W/m² | - |
| 1777454946 | 16.11° C | 99% | 1010 hPa | 0 mm | - | 0 W/m² | - |
* Rain latest hour (hover to see other rain measurements)
** Current wind speed in m/s (hover to see current wind gust speed)